Location: Cubitt Town
(51.4833°N, 0.0000°E)
Time: 02:47:38
(UTC+00:00)

Cosmos 1833 - Pass Details

Date: 15 May 2026
Orbit: 833 x 865 km, 70.9° (Epoch: 8 June)

Event Time Altitude Azimuth Distance (km) Brightness Sun altitude
Exits shadow 21:44:10 13° 185° (S) 2,281 6.0 -13.8°
Maximum altitude 21:49:07 51° 112° (ESE) 1,046 4.4 -14.2°
Drops below altitude 10° 21:54:33 10° 38° (NE) 2,457 6.9 -14.6°
Sets 21:57:02 0° 33° (NNE) 3,393 7.7 -14.8°
